Location: Unspecified
(40.7444°N, 0.0000°E)
Time: 02:39:23
(UTC+00:00)

AO-73 - Visible Passes

Search period start: 04 April 2026 00:00
Search period end: 14 April 2026 00:00
Orbit: 515 x 568 km, 97.8° (Epoch: 29 March)

Date Brightness Start Highest point End Pass type
(mag) Time Alt. Az. Time Alt. Az. Time Alt. Az.
4 Apr ? 03:24:38 10° NNE 03:28:15 41° E 03:29:07 35° SE visible
4 Apr ? 05:00:29 10° NW 05:02:25 14° WNW 05:04:22 10° W visible
5 Apr ? 03:17:43 10° NNE 03:21:11 34° E 03:22:11 29° SE visible
5 Apr ? 04:53:03 10° NNW 04:55:27 16° WNW 04:57:43 11° WSW visible
6 Apr ? 03:10:49 10° NE 03:14:07 28° E 03:15:13 24° SE visible
6 Apr ? 04:45:42 10° NNW 04:48:28 20° WNW 04:50:45 12° WSW visible
7 Apr ? 03:03:56 10° NE 03:07:01 23° E 03:08:14 20° SE visible
7 Apr ? 04:38:24 10° NNW 04:41:27 23° WNW 04:43:46 14° WSW visible
8 Apr ? 02:57:06 10° NE 02:59:53 19° E 03:01:14 16° ESE visible
8 Apr ? 04:31:08 10° N 04:34:25 28° WNW 04:36:46 16° WSW visible
9 Apr ? 02:50:21 10° NE 02:52:44 16° E 02:54:12 13° ESE visible
9 Apr ? 04:23:53 10° N 04:27:20 34° WNW 04:29:44 17° SW visible
10 Apr ? 02:43:44 10° ENE 02:45:33 13° E 02:47:10 11° ESE visible
10 Apr ? 04:16:38 10° N 04:20:15 42° WNW 04:22:42 18° SW visible
11 Apr ? 02:37:31 10° E 02:38:20 11° E 02:39:09 10° ESE visible
11 Apr ? 04:09:25 10° N 04:13:08 52° WNW 04:15:38 19° SW visible
12 Apr ? 04:02:11 10° N 04:06:00 65° WNW 04:08:33 20° SSW visible
13 Apr ? 03:54:58 10° N 03:58:50 81° WNW 04:01:27 20° SSW visible
